| time (UTC) | temp C | wind direction | speed KPH | gust KPH | rain 1hr cm | rain 24hr cm | rain mn cm | humidity % | barometer mb |
| 20260503224014 | 29 | 331 | 1.6 | 8.0 | 0.00 | 0.00 | 0.00 | 41 | 1010.4 |
| 20260503223513 | 30 | 319 | 3.2 | 8.0 | 0.00 | 0.00 | 0.00 | 39 | 1010.5 |
| 20260503223033 | 30 | 316 | 1.6 | 4.8 | 0.00 | 0.00 | 0.00 | 39 | 1010.5 |
| 20260503222515 | 29 | 135 | 1.6 | 3.2 | 0.00 | 0.00 | 0.00 | 41 | 1010.5 |
| 20260503222015 | 29 | 313 | 1.6 | 8.0 | 0.00 | 0.00 | 0.00 | 41 | 1010.6 |
| 20260503221536 | 29 | 306 | 1.6 | 8.0 | 0.00 | 0.00 | 0.00 | 40 | 1010.6 |
| 20260503221015 | 29 | 47 | 1.6 | 4.8 | 0.00 | 0.00 | 0.00 | 43 | 1010.7 |
| 20260503220514 | 28 | 32 | 1.6 | 4.8 | 0.00 | 0.00 | 0.00 | 45 | 1010.8 |
| 20260503220037 | 28 | 318 | 0.0 | 4.8 | 0.00 | 0.00 | 0.00 | 43 | 1010.8 |
| 20260503215514 | 29 | 351 | 1.6 | 4.8 | 0.00 | 0.00 | 0.00 | 40 | 1010.9 |
| 20260503215013 | 28 | 0 | 0.0 | 6.4 | 0.00 | 0.00 | 0.00 | 42 | 1011.0 |
| 20260503214532 | 28 | 31 | 1.6 | 6.4 | 0.00 | 0.00 | 0.00 | 44 | 1011.0 |
| 20260503214015 | 28 | 336 | 1.6 | 9.7 | 0.00 | 0.00 | 0.00 | 42 | 1011.1 |
| 20260503213514 | 28 | 321 | 0.0 | 9.7 | 0.00 | 0.00 | 0.00 | 43 | 1011.1 |
| 20260503213035 | 28 | 44 | 0.0 | 8.0 | 0.00 | 0.00 | 0.00 | 47 | 1011.2 |
| 20260503212513 | 28 | 56 | 1.6 | 8.0 | 0.00 | 0.00 | 0.00 | 43 | 1011.2 |
| 20260503212013 | 28 | 296 | 3.2 | 6.4 | 0.00 | 0.00 | 0.00 | 44 | 1011.3 |
| 20260503211538 | 28 | 324 | 1.6 | 6.4 | 0.00 | 0.00 | 0.00 | 48 | 1011.3 |
| 20260503211016 | 28 | 320 | 1.6 | 6.4 | 0.00 | 0.00 | 0.00 | 46 | 1011.4 |
| 20260503210514 | 28 | 117 | 0.0 | 6.4 | 0.00 | 0.00 | 0.00 | 44 | 1011.3 |
| 20260503210033 | 27 | 295 | 1.6 | 6.4 | 0.00 | 0.00 | 0.00 | 45 | 1011.4 |
| 20260503205522 | 27 | 321 | 1.6 | 4.8 | 0.00 | 0.00 | 0.00 | 46 | 1011.4 |
| 20260503205014 | 27 | 292 | 1.6 | 3.2 | 0.00 | 0.00 | 0.00 | 44 | 1011.6 |
| 20260503204533 | 27 | 314 | 0.0 | 4.8 | 0.00 | 0.00 | 0.00 | 45 | 1011.7 |
| 20260503204014 | 27 | 0 | 0.0 | 4.8 | 0.00 | 0.00 | 0.00 | 44 | 1011.7 |
| 20260503203515 | 27 | 346 | 0.0 | 4.8 | 0.00 | 0.00 | 0.00 | 47 | 1011.8 |
| 20260503203032 | 27 | 223 | 1.6 | 4.8 | 0.00 | 0.00 | 0.00 | 45 | 1011.9 |
| 20260503202515 | 27 | 315 | 1.6 | 6.4 | 0.00 | 0.00 | 0.00 | 46 | 1012.0 |
| 20260503202014 | 27 | 332 | 1.6 | 6.4 | 0.00 | 0.00 | 0.00 | 46 | 1012.0 |
| 20260503201532 | 27 | 344 | 1.6 | 6.4 | 0.00 | 0.00 | 0.00 | 47 | 1012.0 |
| 20260503201014 | 26 | 339 | 1.6 | 6.4 | 0.00 | 0.00 | 0.00 | 46 | 1012.0 |
| 20260503200514 | 26 | 336 | 0.0 | 4.8 | 0.00 | 0.00 | 0.00 | 49 | 1012.2 |
| 20260503200032 | 26 | 318 | 3.2 | 6.4 | 0.00 | 0.00 | 0.00 | 45 | 1012.2 |
| 20260503195514 | 26 | 81 | 1.6 | 8.0 | 0.00 | 0.00 | 0.00 | 48 | 1012.3 |
| 20260503195017 | 26 | 298 | 1.6 | 8.0 | 0.00 | 0.00 | 0.00 | 49 | 1012.4 |
| 20260503194541 | 26 | 325 | 1.6 | 8.0 | 0.00 | 0.00 | 0.00 | 48 | 1012.5 |
| 20260503194015 | 26 | 317 | 1.6 | 8.0 | 0.00 | 0.00 | 0.00 | 51 | 1012.6 |
| 20260503193516 | 26 | 342 | 1.6 | 4.8 | 0.00 | 0.00 | 0.00 | 50 | 1012.7 |
| 20260503193039 | 25 | 45 | 1.6 | 4.8 | 0.00 | 0.00 | 0.00 | 51 | 1012.7 |
| 20260503192515 | 25 | 350 | 1.6 | 8.0 | 0.00 | 0.00 | 0.00 | 51 | 1012.8 |
| 20260503192018 | 25 | 313 | 1.6 | 8.0 | 0.00 | 0.00 | 0.00 | 51 | 1012.8 |
| 20260503191530 | 25 | 360 | 1.6 | 8.0 | 0.00 | 0.00 | 0.00 | 52 | 1012.9 |
| 20260503191018 | 25 | 39 | 0.0 | 8.0 | 0.00 | 0.00 | 0.00 | 52 | 1012.9 |
| 20260503190515 | 25 | 329 | 1.6 | 6.4 | 0.00 | 0.00 | 0.00 | 52 | 1013.0 |
| 20260503190040 | 24 | 0 | 1.6 | 6.4 | 0.00 | 0.00 | 0.00 | 52 | 1013.0 |
| 20260503185514 | 24 | 352 | 1.6 | 6.4 | 0.00 | 0.00 | 0.00 | 51 | 1013.0 |
| 20260503185016 | 24 | 0 | 1.6 | 6.4 | 0.00 | 0.00 | 0.00 | 53 | 1013.0 |
| 20260503184530 | 24 | 315 | 1.6 | 6.4 | 0.00 | 0.00 | 0.00 | 54 | 1013.1 |
| 20260503184015 | 24 | 0 | 0.0 | 9.7 | 0.00 | 0.00 | 0.00 | 54 | 1013.1 |
| 20260503183515 | 23 | 296 | 0.0 | 9.7 | 0.00 | 0.00 | 0.00 | 55 | 1013.2 |
| 20260503183036 | 23 | 335 | 3.2 | 9.7 | 0.00 | 0.00 | 0.00 | 53 | 1013.2 |
| 20260503182523 | 23 | 47 | 1.6 | 9.7 | 0.00 | 0.00 | 0.00 | 54 | 1013.3 |
| 20260503182016 | 23 | 293 | 1.6 | 9.7 | 0.00 | 0.00 | 0.00 | 57 | 1013.3 |
| 20260503181536 | 22 | 57 | 1.6 | 8.0 | 0.00 | 0.00 | 0.00 | 56 | 1013.3 |
| 20260503181018 | 22 | 344 | 1.6 | 9.7 | 0.00 | 0.00 | 0.00 | 56 | 1013.4 |
| 20260503180514 | 22 | 360 | 1.6 | 8.0 | 0.00 | 0.00 | 0.00 | 57 | 1013.4 |
| 20260503180034 | 22 | 319 | 0.0 | 3.2 | 0.00 | 0.00 | 0.00 | 58 | 1013.4 |
| 20260503175516 | 22 | 319 | 1.6 | 3.2 | 0.00 | 0.00 | 0.00 | 58 | 1013.5 |
| 20260503175013 | 21 | 352 | 0.0 | 4.8 | 0.00 | 0.00 | 0.00 | 61 | 1013.5 |
| 20260503174543 | 21 | 348 | 1.6 | 4.8 | 0.00 | 0.00 | 0.00 | 59 | 1013.4 |
| 20260503174015 | 21 | 342 | 1.6 | 6.4 | 0.00 | 0.00 | 0.00 | 60 | 1013.5 |
| 20260503173515 | 21 | 325 | 1.6 | 6.4 | 0.00 | 0.00 | 0.00 | 62 | 1013.5 |
| 20260503173030 | 20 | 313 | 3.2 | 6.4 | 0.00 | 0.00 | 0.00 | 62 | 1013.6 |
| 20260503172514 | 20 | 346 | 1.6 | 6.4 | 0.00 | 0.00 | 0.00 | 63 | 1013.6 |
| 20260503172015 | 20 | 288 | 1.6 | 4.8 | 0.00 | 0.00 | 0.00 | 62 | 1013.6 |
| 20260503171530 | 20 | 348 | 1.6 | 4.8 | 0.00 | 0.00 | 0.00 | 62 | 1013.7 |
| 20260503171016 | 19 | 348 | 1.6 | 9.7 | 0.00 | 0.00 | 0.00 | 63 | 1013.6 |
| 20260503170515 | 19 | 346 | 0.0 | 9.7 | 0.00 | 0.00 | 0.00 | 64 | 1013.7 |
| 20260503151013 | 12 | 0 | 0.0 | 3.2 | 0.00 | 0.00 | 0.00 | 86 | 1014.0 |
| 20260503150511 | 11 | 0 | 0.0 | 3.2 | 0.00 | 0.00 | 0.00 | 87 | 1014.0 |
| 20260503131015 | 10 | 0 | 0.0 | 0.0 | 0.00 | 0.00 | 0.00 | 87 | 1013.6 |
| 20260503130515 | 10 | 0 | 0.0 | 0.0 | 0.00 | 0.00 | 0.00 | 87 | 1013.6 |
| 20260503110515 | 10 | 0 | 0.0 | 0.0 | 0.00 | 0.00 | 0.00 | 84 | 1014.0 |
| 20260503081543 | 12 | 0 | 0.0 | 0.0 | 0.00 | 0.00 | 0.00 | 81 | 1014.2 |
| 20260503081014 | 12 | 0 | 0.0 | 0.0 | 0.00 | 0.00 | 0.00 | 81 | 1014.2 |
| 20260503080515 | 12 | 0 | 0.0 | 0.0 | 0.00 | 0.00 | 0.00 | 81 | 1014.2 |
| 20260503072515 | 13 | 0 | 0.0 | 0.0 | 0.00 | 0.00 | 0.00 | 79 | 1014.3 |
| 20260503072012 | 13 | 0 | 0.0 | 0.0 | 0.00 | 0.00 | 0.00 | 79 | 1014.3 |
| 20260503071539 | 13 | 0 | 0.0 | 0.0 | 0.00 | 0.00 | 0.00 | 78 | 1014.3 |
| 20260503071010 | 13 | 0 | 0.0 | 0.0 | 0.00 | 0.00 | 0.00 | 78 | 1014.3 |
| 20260503070512 | 13 | 0 | 0.0 | 0.0 | 0.00 | 0.00 | 0.00 | 77 | 1014.3 |
| 20260503055013 | 15 | 0 | 0.0 | 0.0 | 0.00 | 0.00 | 0.00 | 73 | 1014.0 |
| 20260503054535 | 15 | 0 | 0.0 | 0.0 | 0.00 | 0.00 | 0.00 | 72 | 1014.1 |
| 20260503054013 | 15 | 0 | 0.0 | 0.0 | 0.00 | 0.00 | 0.00 | 70 | 1014.0 |
| 20260503053511 | 15 | 0 | 0.0 | 0.0 | 0.00 | 0.00 | 0.00 | 69 | 1014.1 |
| 20260503053034 | 15 | 0 | 0.0 | 0.0 | 0.00 | 0.00 | 0.00 | 70 | 1014.1 |
| 20260503052513 | 15 | 0 | 0.0 | 0.0 | 0.00 | 0.00 | 0.00 | 70 | 1014.1 |
| 20260503052018 | 15 | 0 | 0.0 | 0.0 | 0.00 | 0.00 | 0.00 | 70 | 1014.1 |
| 20260503051533 | 15 | 0 | 0.0 | 0.0 | 0.00 | 0.00 | 0.00 | 70 | 1014.1 |
| 20260503051010 | 16 | 0 | 0.0 | 0.0 | 0.00 | 0.00 | 0.00 | 70 | 1014.1 |
| 20260503050513 | 16 | 0 | 0.0 | 0.0 | 0.00 | 0.00 | 0.00 | 69 | 1014.0 |
| 20260503050030 | 16 | 0 | 0.0 | 0.0 | 0.00 | 0.00 | 0.00 | 68 | 1014.1 |
| 20260503045514 | 16 | 0 | 0.0 | 0.0 | 0.00 | 0.00 | 0.00 | 67 | 1014.1 |
| 20260503045011 | 16 | 0 | 0.0 | 0.0 | 0.00 | 0.00 | 0.00 | 66 | 1014.0 |
| 20260503044529 | 16 | 0 | 0.0 | 0.0 | 0.00 | 0.00 | 0.00 | 65 | 1013.9 |
| 20260503044013 | 16 | 0 | 0.0 | 0.0 | 0.00 | 0.00 | 0.00 | 65 | 1013.9 |
| 20260503043515 | 17 | 0 | 0.0 | 0.0 | 0.00 | 0.00 | 0.00 | 65 | 1013.8 |
| 20260503043033 | 17 | 0 | 0.0 | 0.0 | 0.00 | 0.00 | 0.00 | 65 | 1013.7 |
| 20260503042510 | 17 | 0 | 0.0 | 0.0 | 0.00 | 0.00 | 0.00 | 64 | 1013.7 |
| 20260503042016 | 17 | 0 | 0.0 | 0.0 | 0.00 | 0.00 | 0.00 | 64 | 1013.7 |
| 20260503041532 | 17 | 0 | 0.0 | 0.0 | 0.00 | 0.00 | 0.00 | 64 | 1013.7 |
| 20260503041015 | 17 | 0 | 0.0 | 0.0 | 0.00 | 0.00 | 0.00 | 64 | 1013.6 |
| 20260503040516 | 17 | 0 | 0.0 | 0.0 | 0.00 | 0.00 | 0.00 | 64 | 1013.4 |
| 20260503040030 | 17 | 0 | 0.0 | 0.0 | 0.00 | 0.00 | 0.00 | 63 | 1013.4 |
| 20260503035510 | 18 | 0 | 0.0 | 0.0 | 0.00 | 0.00 | 0.00 | 63 | 1013.3 |
| 20260503035014 | 18 | 0 | 0.0 | 0.0 | 0.00 | 0.00 | 0.00 | 63 | 1013.2 |
| 20260503034536 | 18 | 0 | 0.0 | 3.2 | 0.00 | 0.00 | 0.00 | 63 | 1013.1 |
| 20260503034013 | 18 | 0 | 0.0 | 3.2 | 0.00 | 0.00 | 0.00 | 63 | 1013.1 |
| 20260503033511 | 18 | 262 | 0.0 | 3.2 | 0.00 | 0.00 | 0.00 | 62 | 1013.0 |
| 20260503033032 | 18 | 0 | 0.0 | 3.2 | 0.00 | 0.00 | 0.00 | 62 | 1013.0 |
| 20260503032513 | 19 | 0 | 0.0 | 0.0 | 0.00 | 0.00 | 0.00 | 61 | 1012.9 |
| 20260503032015 | 19 | 0 | 0.0 | 0.0 | 0.00 | 0.00 | 0.00 | 62 | 1012.9 |
| 20260503031530 | 19 | 0 | 0.0 | 3.2 | 0.00 | 0.00 | 0.00 | 61 | 1012.8 |
| 20260503031011 | 20 | 0 | 0.0 | 3.2 | 0.00 | 0.00 | 0.00 | 61 | 1012.7 |
| 20260503030515 | 20 | 0 | 0.0 | 3.2 | 0.00 | 0.00 | 0.00 | 61 | 1012.6 |
| 20260503030031 | 20 | 0 | 0.0 | 3.2 | 0.00 | 0.00 | 0.00 | 61 | 1012.6 |
| 20260503025510 | 20 | 0 | 0.0 | 0.0 | 0.00 | 0.00 | 0.00 | 60 | 1012.5 |
| 20260503025010 | 20 | 0 | 0.0 | 1.6 | 0.00 | 0.00 | 0.00 | 59 | 1012.6 |
| 20260503024533 | 21 | 0 | 0.0 | 1.6 | 0.00 | 0.00 | 0.00 | 59 | 1012.4 |
| 20260503024011 | 21 | 0 | 0.0 | 4.8 | 0.00 | 0.00 | 0.00 | 60 | 1012.4 |
| 20260503023513 | 21 | 0 | 0.0 | 4.8 | 0.00 | 0.00 | 0.00 | 58 | 1012.4 |
| 20260503023030 | 21 | 305 | 0.0 | 3.2 | 0.00 | 0.00 | 0.00 | 58 | 1012.3 |
| 20260503022509 | 21 | 0 | 0.0 | 3.2 | 0.00 | 0.00 | 0.00 | 57 | 1012.3 |
| 20260503022014 | 21 | 0 | 0.0 | 3.2 | 0.00 | 0.00 | 0.00 | 56 | 1012.3 |
| 20260503021532 | 22 | 290 | 0.0 | 3.2 | 0.00 | 0.00 | 0.00 | 57 | 1012.2 |
| 20260503021014 | 22 | 0 | 0.0 | 3.2 | 0.00 | 0.00 | 0.00 | 57 | 1012.3 |
| 20260503020513 | 22 | 301 | 0.0 | 3.2 | 0.00 | 0.00 | 0.00 | 54 | 1012.3 |
| 20260503020031 | 22 | 276 | 0.0 | 3.2 | 0.00 | 0.00 | 0.00 | 54 | 1012.3 |
| 20260503015513 | 23 | 0 | 0.0 | 3.2 | 0.00 | 0.00 | 0.00 | 55 | 1012.3 |
| 20260503015013 | 23 | 0 | 0.0 | 3.2 | 0.00 | 0.00 | 0.00 | 54 | 1012.3 |
| 20260503014529 | 23 | 0 | 0.0 | 3.2 | 0.00 | 0.00 | 0.00 | 57 | 1012.3 |
| 20260503014014 | 23 | 0 | 0.0 | 3.2 | 0.00 | 0.00 | 0.00 | 53 | 1012.3 |
| 20260503013511 | 24 | 0 | 0.0 | 3.2 | 0.00 | 0.00 | 0.00 | 54 | 1012.3 |
| 20260503013029 | 24 | 0 | 0.0 | 3.2 | 0.00 | 0.00 | 0.00 | 54 | 1012.3 |
| 20260503012510 | 24 | 0 | 0.0 | 3.2 | 0.00 | 0.00 | 0.00 | 50 | 1012.3 |
| 20260503012019 | 25 | 232 | 0.0 | 3.2 | 0.00 | 0.00 | 0.00 | 52 | 1012.4 |
| 20260503011533 | 25 | 40 | 0.0 | 3.2 | 0.00 | 0.00 | 0.00 | 52 | 1012.4 |
| 20260503011011 | 25 | 0 | 0.0 | 3.2 | 0.00 | 0.00 | 0.00 | 52 | 1012.3 |
| 20260503010511 | 25 | 55 | 0.0 | 3.2 | 0.00 | 0.00 | 0.00 | 51 | 1012.3 |
| 20260503010036 | 25 | 0 | 0.0 | 3.2 | 0.00 | 0.00 | 0.00 | 50 | 1012.3 |
| 20260503005515 | 25 | 0 | 0.0 | 3.2 | 0.00 | 0.00 | 0.00 | 50 | 1012.3 |
| 20260503005019 | 25 | 327 | 0.0 | 3.2 | 0.00 | 0.00 | 0.00 | 51 | 1012.3 |
| 20260503004533 | 25 | 132 | 0.0 | 4.8 | 0.00 | 0.00 | 0.00 | 53 | 1012.3 |
| 20260503004014 | 25 | 105 | 0.0 | 4.8 | 0.00 | 0.00 | 0.00 | 53 | 1012.4 |
| 20260503003515 | 25 | 151 | 0.0 | 4.8 | 0.00 | 0.00 | 0.00 | 52 | 1012.4 |
| 20260503003048 | 25 | 68 | 1.6 | 4.8 | 0.00 | 0.00 | 0.00 | 51 | 1012.5 |
| 20260503002516 | 25 | 0 | 0.0 | 3.2 | 0.00 | 0.00 | 0.00 | 53 | 1012.5 |
| 20260503002018 | 25 | 0 | 0.0 | 4.8 | 0.00 | 0.00 | 0.00 | 51 | 1012.5 |
| 20260503001549 | 25 | 68 | 1.6 | 4.8 | 0.00 | 0.00 | 0.00 | 51 | 1012.5 |
| 20260503001015 | 25 | 0 | 0.0 | 4.8 | 0.00 | 0.00 | 0.00 | 52 | 1012.6 |
| 20260503000515 | 25 | 324 | 0.0 | 4.8 | 0.00 | 0.00 | 0.00 | 52 | 1012.5 |
| 20260503000033 | 25 | 182 | 0.0 | 4.8 | 0.00 | 0.00 | 0.00 | 53 | 1012.5 |
| 20260502235515 | 25 | 94 | 0.0 | 4.8 | 0.00 | 0.00 | 0.00 | 57 | 1012.6 |
| 20260502235015 | 25 | 158 | 0.0 | 4.8 | 0.00 | 0.00 | 0.00 | 56 | 1012.7 |
| 20260502234536 | 24 | 126 | 0.0 | 4.8 | 0.00 | 0.00 | 0.00 | 54 | 1012.8 |
| 20260502234016 | 24 | 0 | 0.0 | 6.4 | 0.00 | 0.00 | 0.00 | 56 | 1012.9 |
| 20260502233512 | 24 | 0 | 1.6 | 6.4 | 0.00 | 0.00 | 0.00 | 54 | 1013.0 |
| 20260502233033 | 23 | 338 | 1.6 | 4.8 | 0.00 | 0.00 | 0.00 | 56 | 1013.1 |
| 20260502232515 | 23 | 0 | 0.0 | 4.8 | 0.00 | 0.00 | 0.00 | 59 | 1013.1 |
| 20260502232012 | 23 | 266 | 0.0 | 4.8 | 0.00 | 0.00 | 0.00 | 57 | 1013.3 |
| 20260502231532 | 23 | 127 | 0.0 | 3.2 | 0.00 | 0.00 | 0.00 | 59 | 1013.3 |
| 20260502231012 | 23 | 105 | 0.0 | 3.2 | 0.00 | 0.00 | 0.00 | 57 | 1013.3 |
| 20260502230519 | 23 | 215 | 0.0 | 3.2 | 0.00 | 0.00 | 0.00 | 59 | 1013.3 |
| 20260502230035 | 23 | 88 | 0.0 | 3.2 | 0.00 | 0.00 | 0.00 | 59 | 1013.4 |
| 20260502225515 | 23 | 0 | 0.0 | 3.2 | 0.00 | 0.00 | 0.00 | 57 | 1013.6 |
| 20260502225018 | 23 | 178 | 0.0 | 3.2 | 0.00 | 0.00 | 0.00 | 57 | 1013.6 |
| 20260502224534 | 23 | 74 | 0.0 | 3.2 | 0.00 | 0.00 | 0.00 | 57 | 1013.8 |